Regional Weather Roundup
Issued by NWS

Home | Current Version | Previous Version | Graphics & Text | Print | Product List | Glossary On
Versions: 1 2 3 4 5 6 7 8 9 10 11 12 13 14 15 16 17 18 19 20 21 22 23 24 25 26 27 28 29 30 31 32 33 34 35 36 37 38 39 40 41 42 43 44 45 46 47 48 49 50
000
ASUS43 KIND 162059
RWRIN

WEATHER ROUNDUP FOR INDIANA
NATIONAL WEATHER SERVICE INDIANAPOLIS IN
400 PM EST TUE JAN 16 2018

NOTE: "FAIR" INDICATES FEW OR NO CLOUDS BELOW 12,000 FEET WITH NO
SIGNIFICANT WEATHER AND/OR OBSTRUCTIONS TO VISIBILITY.

* - STATION DOES NOT REPORT WEATHER SUCH AS PRECIPITATION OR FOG.

+ - STATION NOT QUALITY CONTROLLED BY THE NATIONAL WEATHER SERVICE.
    USE DATA WITH CAUTION...ESPECIALLY DEWPOINT AND RELATIVE
    HUMIDITY OBSERVATIONS.

INZ001>003-010>013-019-020-162200-
NORTHWEST INDIANA

CITY           SKY/WX    TMP DP  RH WIND       PRES   REMARKS
GARY /AIRPORT/ PTSUNNY   25  16  68 NW12      30.45R WCI  14
KNOX *+        CLOUDY    16  10  79 SW5       30.45R WCI   9
MONTICELLO +   FLURRIES   9   3  77 SW13      30.48R WCI  -7

$$

LMZ046-743>745-162200-
SOUTHERN LAKE MICHIGAN

STATION/POSITION TIME  TEMP    WIND        PRES    WAVE
                       AIR SEA DIR/SP/G            HT
                 (UTC) (F)     (DEG/KT/KT) (MB)    (FT)
BURNS HARBOR     2040   23     330/ 14/ 17 1030.8R
MICHIGAN CITY    2030           50/  5/  6   N/A

$$

INZ004-005-014>016-021>024-162200-
NORTH CENTRAL INDIANA

CITY           SKY/WX    TMP DP  RH WIND       PRES   REMARKS
ELKHART        FAIR      10   3  72 CALM      30.44R
GOSHEN         CLOUDY     9   2  73 SW9       30.44R WCI  -4
PERU/GRISSOM   CLOUDY     8   4  83 W13       30.46R WCI  -8
SOUTH BEND     FAIR      11   5  77 S5        30.44R WCI   3

$$

INZ006>009-017-018-025>027-162200-
NORTHEAST INDIANA

CITY           SKY/WX    TMP DP  RH WIND       PRES   REMARKS
FORT WAYNE     CLOUDY     7   0  73 SW12      30.46R WCI  -8
KENDALLVILLE + FAIR       9   2  73 W9        30.41R WCI  -4

$$

INZ028-029-035-036-043>045-051>053-162200-
WEST CENTRAL INDIANA

CITY           SKY/WX    TMP DP  RH WIND       PRES   REMARKS
GREENCASTLE +  LGT SNOW   5   0  78 CALM      30.53S
LAFAYETTE      CLOUDY     8   3  80 SW12      30.51S WCI  -7
TERRE HAUTE    FLURRIES   6  -2  69 W9        30.58R WCI  -8

$$

INZ030>032-037>040-046>048-054>057-064-065-162200-
CENTRAL INDIANA

CITY           SKY/WX    TMP DP  RH WIND       PRES   REMARKS
ANDERSON       CLOUDY    10   3  72 NW12      30.49R WCI  -4
COLUMBUS       CLOUDY     9   0  66 W9        30.53S WCI  -5
GREENWOOD *+   CLOUDY     7  -1  67 W8        30.51R WCI  -5
INDIANAPOLIS   LGT SNOW   6  -1  73 W13       30.51S WCI -10
-EAGLE CREEK   FLURRIES   6  -2  69 W12G17    30.50R WCI  -9
MT COMFORT *+  CLOUDY     5   1  85 W9        30.50R WCI  -9
SHELBYVILLE    FLURRIES   7  -2  66 W9        30.50S WCI  -7

$$

INZ033-034-041-042-049-050-058-059-162200-
EAST CENTRAL INDIANA

CITY           SKY/WX    TMP DP  RH WIND       PRES   REMARKS
MUNCIE         CLOUDY     7  -1  70 W9        30.47R WCI  -7
RICHMOND +     FAIR       5   0  78 W12       30.45S WCI -11

$$

INZ060-061-067>069-081>083-085>088-162200-
SOUTHWEST INDIANA

CITY           SKY/WX    TMP DP  RH WIND       PRES   REMARKS
EVANSVILLE     PTSUNNY    8  -2  63 NW7       30.63R WCI  -3
HUNTINGBURG +  CLOUDY     7  -2  66 W8        30.61R WCI  -6

$$

INZ062-063-066-070>080-084-089>092-162200-
SOUTH CENTRAL AND SOUTHEAST INDIANA

CITY           SKY/WX    TMP DP  RH WIND       PRES   REMARKS
BLOOMINGTON    LGT SNOW   5  -3  69 W9        30.53S WCI  -9
FRENCH LICK *+ CLOUDY     7  -6  56 W7        30.55S WCI  -5
MADISON *+     FAIR      10   0  61 W6        30.54R WCI   1
SEYMOUR +      CLOUDY    10  -2  56 W9        30.55R WCI  -2

$$




USA.gov is the U.S. government's official web portal to all federal, state and local government web resources and services.